Погода в Ханчжоу

Китай     30°16′24″N   120°09′31″E
темп.,
°C
ветер,
м/с
пор.,
м/с
влажн.,
%
обл.,
%
осадки,
мм/ч
давл.,
гПа
погр.,
м
4 августа, ср
ср423:00+27в499284 1.4 1004428
02:00+26в379497 1.4 1003362
05:00+26в389363 0.0 1003369
08:00+28в588428 0.1 1004723
11:00+31в687138 0.3 10031060
14:00+31всв897097 0.5 10011088
17:00+29в7107975 0.1 1002804
20:00+27в61084100 0.1 1003653
5 августа, чт
чт523:00+27в4886100 0.0 1003456
02:00+26вюв3588100 0.0 1001334
05:00+26в2390100 0.0 1001182
08:00+28в358099 0.0 1002558
11:00+31в566695 0.0 10021208
14:00+32в5661100 0.0 10011257
17:00+29в577497 0.0 1000696
20:00+28в498231 0.0 1001499
6 августа, пт
пт623:00+27вюв368467 0.0 1001266
02:00+26в248794 0.0 1001138
05:00+25вюв12885 0.0 100090
08:00+28вюв247576 0.0 1002491
11:00+31всв446532 0.0 10021190
14:00+33всв666063 0.0 10001227
17:00+29всв697889 0.3 1000455
20:00+29в3681100 0.3 1000282
7 августа, сб
сб723:00+27в25815 0.0 1000222
02:00+26вюв12845 0.0 100088
05:00+26ююв1187100 0.0 100035
08:00+28ююз1177100 0.0 1002460
11:00+32вюв116196 0.0 10011152
14:00+33всв225886 0.1 10001368
17:00+30св337697 1.6 1000351
20:00+28вюв238799 3.4 100171
8 августа, вс
вс823:00+27юв019282 0.8 100245
02:00+26сз129694 0.8 1001117
05:00+26сз119744 0.0 100261
08:00+28з118780 0.4 1003374
11:00+31ююз017262 5.1 1002745
14:00+34с116098 6.7 10001213
17:00+29ю2387100 11.4 100171
20:00+27ююз2394100 12.9 1002124